TUI7GT EDDS-EDDB

Flight info

Callsign TUI7GT
Flight time 0h 51m
Altitude 33000
Route OKIBA4B/25 OKIBA N851 RIMKI Z99 LOHRE N746 TIKNI T279 TAMEB T278 KLF KLF1L
Aircraft B738/M-SDE2E3FGHIRWXY/LB1

Departure

Time 2026-05-07 17:45
Airport Stuttgart Airport (EDDS)

Arrival

Time 2026-05-07 18:36
Airport Berlin Brandenburg Airport (EDDB)
Time Latitude Longitude Altitude Speed Heading
2026-05-07 17:13 48.68940 9.19649 1305 ft 0 kts 345°
2026-05-07 17:33 48.68937 9.19650 1304 ft 2 kts 345°
2026-05-07 17:33 48.68922 9.19656 1304 ft 2 kts 345°
2026-05-07 17:34 48.68907 9.19662 1303 ft 2 kts 345°
2026-05-07 17:34 48.68892 9.19668 1303 ft 2 kts 344°
2026-05-07 17:34 48.68878 9.19669 1302 ft 2 kts 16°
2026-05-07 17:34 48.68864 9.19659 1303 ft 2 kts 41°
2026-05-07 17:35 48.68855 9.19641 1303 ft 1 kts 67°
2026-05-07 17:35 48.68853 9.19632 1303 ft 1 kts 77°
2026-05-07 17:35 48.68852 9.19626 1304 ft 0 kts 74°
2026-05-07 17:37 48.68853 9.19635 1303 ft 3 kts 74°
2026-05-07 17:38 48.68864 9.19690 1302 ft 7 kts 74°
2026-05-07 17:38 48.68880 9.19775 1300 ft 8 kts 78°
2026-05-07 17:38 48.68853 9.19858 1297 ft 10 kts 133°
2026-05-07 17:38 48.68827 9.19976 1293 ft 15 kts 75°
2026-05-07 17:39 48.68859 9.20144 1288 ft 19 kts 76°
2026-05-07 17:39 48.68898 9.20357 1280 ft 22 kts 73°
2026-05-07 17:39 48.68940 9.20574 1273 ft 20 kts 74°
2026-05-07 17:39 48.68978 9.20774 1267 ft 19 kts 75°
2026-05-07 17:40 48.69016 9.20974 1260 ft 18 kts 74°
2026-05-07 17:40 48.69049 9.21154 1256 ft 17 kts 74°
2026-05-07 17:40 48.69083 9.21329 1251 ft 16 kts 73°
2026-05-07 17:40 48.69113 9.21484 1248 ft 14 kts 74°
2026-05-07 17:41 48.69142 9.21640 1245 ft 16 kts 74°
2026-05-07 17:41 48.69176 9.21819 1240 ft 18 kts 73°
2026-05-07 17:41 48.69214 9.22016 1236 ft 20 kts 74°
2026-05-07 17:41 48.69255 9.22234 1230 ft 22 kts 73°
2026-05-07 17:42 48.69299 9.22470 1224 ft 23 kts 73°
2026-05-07 17:42 48.69344 9.22703 1218 ft 22 kts 73°
2026-05-07 17:42 48.69385 9.22921 1212 ft 20 kts 75°
2026-05-07 17:42 48.69426 9.23133 1207 ft 20 kts 73°
2026-05-07 17:43 48.69463 9.23328 1202 ft 19 kts 74°
2026-05-07 17:43 48.69501 9.23528 1197 ft 20 kts 73°
2026-05-07 17:43 48.69501 9.23724 1193 ft 18 kts 138°
2026-05-07 17:43 48.69397 9.23713 1193 ft 15 kts 220°
2026-05-07 17:44 48.69326 9.23612 1195 ft 13 kts 224°
2026-05-07 17:44 48.69257 9.23496 1198 ft 17 kts 228°
2026-05-07 17:44 48.69191 9.23249 1204 ft 49 kts 252°
2026-05-07 17:44 48.69029 9.22412 1226 ft 116 kts 254°
2026-05-07 17:45 48.68750 9.20953 1284 ft 169 kts 255°
2026-05-07 17:45 48.68422 9.19242 1931 ft 174 kts 257°
2026-05-07 17:45 48.68100 9.17479 2682 ft 179 kts 256°
2026-05-07 17:45 48.67759 9.15637 3061 ft 190 kts 256°
2026-05-07 17:46 48.67377 9.13619 3163 ft 213 kts 255°
2026-05-07 17:46 48.66955 9.11412 3295 ft 225 kts 258°
2026-05-07 17:46 48.67031 9.09023 3700 ft 232 kts 293°
2026-05-07 17:46 48.68005 9.07126 4173 ft 237 kts 326°
2026-05-07 17:47 48.69563 9.06370 4660 ft 243 kts 352°
2026-05-07 17:47 48.71191 9.05848 5232 ft 244 kts 340°
2026-05-07 17:47 48.72805 9.04912 5710 ft 254 kts 339°
2026-05-07 17:47 48.74534 9.04212 6169 ft 266 kts 356°
2026-05-07 17:48 48.76342 9.04742 6805 ft 272 kts 21°
2026-05-07 17:48 48.78081 9.05870 7470 ft 276 kts 21°
2026-05-07 17:48 48.79871 9.06925 8120 ft 280 kts 20°
2026-05-07 17:48 48.81681 9.07986 8815 ft 284 kts 20°
2026-05-07 17:49 48.83498 9.09057 9502 ft 287 kts 19°
2026-05-07 17:49 48.85375 9.10164 10189 ft 291 kts 19°
2026-05-07 17:49 48.87294 9.11293 10469 ft 311 kts 19°
2026-05-07 17:49 48.89360 9.12508 10707 ft 331 kts 19°
2026-05-07 17:50 48.91594 9.13634 10812 ft 353 kts 11°
2026-05-07 17:50 48.94025 9.14282 11361 ft 360 kts
2026-05-07 17:50 48.96499 9.14917 11814 ft 371 kts
2026-05-07 17:50 48.99006 9.15630 12560 ft 373 kts
2026-05-07 17:51 49.01523 9.16365 13189 ft 378 kts
2026-05-07 17:51 49.04130 9.17131 13872 ft 381 kts
2026-05-07 17:51 49.06712 9.17900 14563 ft 384 kts
2026-05-07 17:51 49.09356 9.18691 15209 ft 388 kts
2026-05-07 17:52 49.11926 9.19462 15856 ft 391 kts
2026-05-07 17:52 49.14068 9.20107 16348 ft 394 kts
2026-05-07 17:52 49.17093 9.21020 17036 ft 397 kts
2026-05-07 17:52 49.19793 9.21837 17624 ft 401 kts
2026-05-07 17:53 49.22551 9.22673 18199 ft 404 kts
2026-05-07 17:53 49.25286 9.23502 18755 ft 407 kts
2026-05-07 17:53 49.28081 9.24351 19300 ft 410 kts
2026-05-07 17:53 49.30859 9.25195 19813 ft 413 kts
2026-05-07 17:54 49.33570 9.26020 20308 ft 416 kts
2026-05-07 17:54 49.36392 9.26880 20790 ft 419 kts
2026-05-07 17:54 49.39151 9.27722 21258 ft 422 kts
2026-05-07 17:54 49.42016 9.28598 21721 ft 425 kts
2026-05-07 17:55 49.44865 9.29469 22162 ft 427 kts
2026-05-07 17:55 49.47716 9.30343 22599 ft 430 kts
2026-05-07 17:55 49.50581 9.31221 23007 ft 433 kts 10°
2026-05-07 17:55 49.53473 9.32108 23412 ft 435 kts 10°
2026-05-07 17:56 49.56425 9.33015 23811 ft 438 kts 10°
2026-05-07 17:56 49.59403 9.33932 24206 ft 440 kts 10°
2026-05-07 17:56 49.62401 9.34894 24592 ft 443 kts 13°
2026-05-07 17:56 49.65246 9.36621 24909 ft 448 kts 27°
2026-05-07 17:57 49.67904 9.39039 25402 ft 448 kts 30°
2026-05-07 17:57 49.69671 9.40708 25583 ft 451 kts 30°
2026-05-07 17:57 49.73273 9.44015 26046 ft 453 kts 29°
2026-05-07 17:57 49.75927 9.46422 26372 ft 455 kts 29°
2026-05-07 17:58 49.78656 9.48892 26704 ft 457 kts 29°
2026-05-07 17:58 49.81417 9.51386 27040 ft 458 kts 29°
2026-05-07 17:58 49.84162 9.53861 27347 ft 460 kts 29°
2026-05-07 17:58 49.86907 9.56334 27655 ft 461 kts 29°
2026-05-07 17:59 49.89687 9.58837 27943 ft 463 kts 29°
2026-05-07 17:59 49.92464 9.61339 28259 ft 464 kts 29°
2026-05-07 17:59 49.95248 9.63849 28586 ft 464 kts 29°
2026-05-07 17:59 49.97841 9.66187 28902 ft 464 kts 30°
2026-05-07 18:00 50.00399 9.68497 29232 ft 463 kts 30°
2026-05-07 18:00 50.03356 9.71168 29585 ft 463 kts 30°
2026-05-07 18:00 50.06096 9.73648 29930 ft 462 kts 30°
2026-05-07 18:00 50.08863 9.76154 30250 ft 462 kts 30°
2026-05-07 18:01 50.11419 9.78473 30537 ft 462 kts 30°
2026-05-07 18:01 50.13852 9.80681 30822 ft 461 kts 30°
2026-05-07 18:01 50.16857 9.83412 31122 ft 462 kts 30°
2026-05-07 18:01 50.19378 9.85706 31396 ft 461 kts 30°
2026-05-07 18:02 50.25131 9.90949 31973 ft 462 kts 29°
2026-05-07 18:02 50.27903 9.93482 32259 ft 461 kts 29°
2026-05-07 18:02 50.30636 9.95982 32511 ft 461 kts 29°
2026-05-07 18:03 50.33388 9.98501 32760 ft 461 kts 29°
2026-05-07 18:03 50.36109 10.00997 32999 ft 460 kts 29°
2026-05-07 18:03 50.38867 10.03527 33072 ft 461 kts 29°
2026-05-07 18:04 50.44330 10.08552 33074 ft 456 kts 29°
2026-05-07 18:04 50.49813 10.13610 33075 ft 456 kts 29°
2026-05-07 18:05 50.55204 10.18597 33074 ft 456 kts 29°
2026-05-07 18:05 50.60606 10.23619 33074 ft 457 kts 31°
2026-05-07 18:06 50.65273 10.30162 33078 ft 458 kts 53°
2026-05-07 18:06 50.68876 10.38385 33073 ft 460 kts 54°
2026-05-07 18:07 50.72461 10.46482 33073 ft 460 kts 54°
2026-05-07 18:07 50.76091 10.54700 33073 ft 459 kts 54°
2026-05-07 18:08 50.79696 10.62879 33073 ft 459 kts 54°
2026-05-07 18:08 50.83177 10.70800 33074 ft 459 kts 55°
2026-05-07 18:09 50.86800 10.79064 33074 ft 460 kts 55°
2026-05-07 18:09 50.90422 10.87352 33070 ft 460 kts 55°
2026-05-07 18:10 50.94021 10.95612 33064 ft 460 kts 55°
2026-05-07 18:10 50.97630 11.03923 33062 ft 459 kts 55°
2026-05-07 18:11 51.01206 11.12184 33067 ft 459 kts 55°
2026-05-07 18:11 51.04779 11.20465 33072 ft 458 kts 55°
2026-05-07 18:12 51.08385 11.28847 33074 ft 459 kts 55°
2026-05-07 18:12 51.11926 11.37104 33074 ft 459 kts 55°
2026-05-07 18:13 51.15481 11.45408 32750 ft 464 kts 54°
2026-05-07 18:13 51.17149 11.49792 32241 ft 462 kts 62°
2026-05-07 18:13 51.18748 11.54133 31736 ft 455 kts 51°
2026-05-07 18:13 51.20931 11.57527 31256 ft 451 kts 36°
2026-05-07 18:14 51.23503 11.60283 30777 ft 456 kts 33°
2026-05-07 18:14 51.25750 11.62759 30345 ft 460 kts 37°
2026-05-07 18:14 51.26549 11.63767 30186 ft 461 kts 40°
2026-05-07 18:15 51.27507 11.65082 29998 ft 460 kts 43°
2026-05-07 18:15 51.29820 11.68531 29547 ft 450 kts 44°
2026-05-07 18:15 51.32015 11.71845 28551 ft 452 kts 44°
2026-05-07 18:15 51.34310 11.75269 27910 ft 446 kts 43°
2026-05-07 18:16 51.36512 11.78544 27296 ft 439 kts 43°
2026-05-07 18:16 51.38720 11.81850 26670 ft 433 kts 43°
2026-05-07 18:16 51.40896 11.85142 26077 ft 426 kts 43°
2026-05-07 18:16 51.42992 11.88337 25582 ft 418 kts 43°
2026-05-07 18:17 51.45064 11.91501 25192 ft 407 kts 43°
2026-05-07 18:17 51.47075 11.94543 24821 ft 397 kts 42°
2026-05-07 18:17 51.49057 11.97506 24448 ft 388 kts 41°
2026-05-07 18:17 51.51031 12.00411 24071 ft 380 kts 41°
2026-05-07 18:18 51.52983 12.03269 23691 ft 372 kts 41°
2026-05-07 18:18 51.54871 12.06015 23317 ft 365 kts 40°
2026-05-07 18:18 51.56763 12.08752 22917 ft 369 kts 40°
2026-05-07 18:18 51.58707 12.11561 22397 ft 384 kts 40°
2026-05-07 18:19 51.60679 12.14428 21866 ft 381 kts 40°
2026-05-07 18:19 51.62637 12.17289 21333 ft 376 kts 40°
2026-05-07 18:19 51.64540 12.20084 21056 ft 364 kts 40°
2026-05-07 18:19 51.66362 12.22775 21059 ft 345 kts 40°
2026-05-07 18:20 51.68084 12.25305 21053 ft 328 kts 39°
2026-05-07 18:20 51.69769 12.27684 20952 ft 315 kts 40°
2026-05-07 18:20 51.71339 12.30065 20827 ft 304 kts 41°
2026-05-07 18:20 51.72864 12.32378 20539 ft 299 kts 41°
2026-05-07 18:21 51.74381 12.34660 20110 ft 300 kts 40°
2026-05-07 18:21 51.75952 12.37018 19243 ft 315 kts 40°
2026-05-07 18:21 51.77566 12.39444 18509 ft 324 kts 40°
2026-05-07 18:21 51.79248 12.41969 17678 ft 335 kts 41°
2026-05-07 18:22 51.80931 12.44501 17310 ft 329 kts 41°
2026-05-07 18:22 51.82040 12.46173 17139 ft 323 kts 41°
2026-05-07 18:22 51.84192 12.49417 16835 ft 311 kts 41°
2026-05-07 18:22 51.85773 12.51798 15952 ft 325 kts 41°
2026-05-07 18:23 51.87449 12.54323 15245 ft 331 kts 41°
2026-05-07 18:23 51.89127 12.56860 14610 ft 333 kts 41°
2026-05-07 18:23 51.90825 12.59427 14042 ft 333 kts 41°
2026-05-07 18:23 51.92519 12.61973 13505 ft 331 kts 40°
2026-05-07 18:24 51.94293 12.64336 12989 ft 328 kts 37°
2026-05-07 18:24 51.96044 12.66586 12489 ft 326 kts 38°
2026-05-07 18:24 51.97798 12.68886 11986 ft 324 kts 38°
2026-05-07 18:24 51.99561 12.71216 11500 ft 320 kts 39°
2026-05-07 18:25 52.01268 12.73479 11057 ft 316 kts 39°
2026-05-07 18:25 52.02922 12.75670 10923 ft 301 kts 39°
2026-05-07 18:25 52.04512 12.77777 10775 ft 289 kts 39°
2026-05-07 18:25 52.06068 12.79858 10459 ft 283 kts 39°
2026-05-07 18:26 52.07551 12.81847 9994 ft 279 kts 39°
2026-05-07 18:26 52.09052 12.83856 9392 ft 274 kts 39°
2026-05-07 18:26 52.10489 12.85782 8814 ft 271 kts 39°
2026-05-07 18:26 52.11937 12.87722 8214 ft 267 kts 39°
2026-05-07 18:27 52.13360 12.89631 7611 ft 265 kts 39°
2026-05-07 18:27 52.14766 12.91518 7026 ft 262 kts 39°
2026-05-07 18:27 52.16164 12.93396 6449 ft 261 kts 39°
2026-05-07 18:27 52.17550 12.95260 6158 ft 256 kts 39°
2026-05-07 18:28 52.18928 12.97113 5728 ft 257 kts 39°
2026-05-07 18:28 52.20308 12.98972 5382 ft 255 kts 39°
2026-05-07 18:28 52.21663 13.00799 4984 ft 255 kts 39°
2026-05-07 18:28 52.23028 13.02640 4638 ft 252 kts 39°
2026-05-07 18:29 52.24356 13.04432 4428 ft 244 kts 39°
2026-05-07 18:29 52.25653 13.06185 4280 ft 235 kts 39°
2026-05-07 18:29 52.26761 13.08009 4191 ft 223 kts 56°
2026-05-07 18:29 52.27444 13.10218 4117 ft 212 kts 63°
2026-05-07 18:30 52.28069 13.12338 4058 ft 200 kts 65°
2026-05-07 18:30 52.28583 13.14362 3989 ft 185 kts 66°
2026-05-07 18:30 52.29034 13.16197 3985 ft 166 kts 66°
2026-05-07 18:30 52.29460 13.17958 3985 ft 167 kts 66°
2026-05-07 18:31 52.29894 13.19745 3898 ft 168 kts 66°
2026-05-07 18:31 52.30309 13.21488 3658 ft 160 kts 66°
2026-05-07 18:31 52.30709 13.23139 3454 ft 150 kts 66°
2026-05-07 18:31 52.31096 13.24748 3285 ft 155 kts 66°
2026-05-07 18:32 52.31490 13.26397 3053 ft 157 kts 66°
2026-05-07 18:32 52.31887 13.28044 2830 ft 154 kts 66°
2026-05-07 18:32 52.32281 13.29690 2622 ft 155 kts 66°
2026-05-07 18:32 52.32678 13.31348 2405 ft 156 kts 66°
2026-05-07 18:33 52.33078 13.33016 2198 ft 156 kts 66°
2026-05-07 18:33 52.33478 13.34688 1963 ft 157 kts 67°
2026-05-07 18:33 52.33872 13.36341 1753 ft 157 kts 67°
2026-05-07 18:33 52.34266 13.37989 1580 ft 151 kts 68°
2026-05-07 18:34 52.34385 13.38482 1531 ft 151 kts 68°
2026-05-07 18:34 52.34752 13.40028 1208 ft 139 kts 68°
2026-05-07 18:34 52.34941 13.40821 1092 ft 140 kts 68°
2026-05-07 18:35 52.35206 13.41928 1123 ft 145 kts 68°
2026-05-07 18:35 52.35573 13.43428 869 ft 140 kts 68°
2026-05-07 18:35 52.35924 13.44902 684 ft 138 kts 69°
2026-05-07 18:35 52.36272 13.46409 480 ft 141 kts 69°
2026-05-07 18:36 52.36624 13.47886 281 ft 139 kts 68°
2026-05-07 18:36 52.36968 13.49337 167 ft 125 kts 68°
2026-05-07 18:36 52.37210 13.50358 166 ft 65 kts 68°
2026-05-07 18:36 52.37307 13.50895 166 ft 33 kts 88°
2026-05-07 18:37 52.37295 13.51103 166 ft 14 kts 97°
2026-05-07 18:37 52.37283 13.51246 166 ft 10 kts 99°
2026-05-07 18:37 52.37264 13.51343 166 ft 7 kts 118°
2026-05-07 18:37 52.37239 13.51388 166 ft 4 kts 144°
2026-05-07 18:38 52.37203 13.51415 166 ft 2 kts 158°
2026-05-07 18:38 52.37203 13.51416 166 ft 0 kts 158°
2026-05-07 18:39 52.37186 13.51427 166 ft 4 kts 158°
2026-05-07 18:39 52.37141 13.51455 166 ft 8 kts 158°
2026-05-07 18:39 52.37075 13.51487 166 ft 10 kts 182°
2026-05-07 18:40 52.37030 13.51407 166 ft 10 kts 248°
2026-05-07 18:40 52.37004 13.51294 166 ft 11 kts 249°
2026-05-07 18:40 52.36974 13.51167 166 ft 13 kts 248°
2026-05-07 18:40 52.36938 13.51015 166 ft 15 kts 249°
2026-05-07 18:41 52.36898 13.50848 166 ft 16 kts 248°
2026-05-07 18:41 52.36861 13.50690 166 ft 12 kts 249°
2026-05-07 18:41 52.36833 13.50572 166 ft 9 kts 249°
2026-05-07 18:41 52.36803 13.50530 166 ft 5 kts 168°
2026-05-07 18:42 52.36763 13.50554 166 ft 5 kts 158°
2026-05-07 18:42 52.36747 13.50564 166 ft 0 kts 158°